Location: Linz
(48.3300°N, 14.3000°E)
Time: 08:11:31
(UTC+01:00)

Vanguard 1 - All Passes

Search period start: 22 November 2017 00:00
Search period end: 02 December 2017 00:00
Orbit: 650 x 3834 km, 34.2° (Epoch: 17 November)

Date Brightness Start Highest point End Pass type
(mag) Time Alt. Az. Time Alt. Az. Time Alt. Az.
22 Nov - 16:45:40 10° SSW 16:48:16 14° S 16:50:42 10° SE visible
22 Nov - 19:05:24 10° SW 19:07:22 13° S 19:09:26 10° SSE visible
23 Nov - 14:48:06 10° S 14:49:40 11° SSE 14:51:05 10° SSE daylight
23 Nov - 17:06:11 10° SW 17:08:59 15° S 17:11:34 10° SE visible
23 Nov - 19:27:30 10° SSW 19:28:04 10° SSW 19:28:37 10° S visible
24 Nov - 15:07:23 10° SSW 15:10:26 14° S 15:13:02 10° SE daylight
24 Nov - 17:26:57 10° SW 17:29:40 15° S 17:32:13 10° SSE visible
25 Nov - 15:27:30 10° SSW 15:31:12 16° S 15:34:15 10° SE daylight
25 Nov - 17:47:58 10° SW 17:50:20 14° S 17:52:36 10° SSE visible
26 Nov - 13:28:51 10° S 13:32:17 13° SSE 13:35:09 10° SE daylight
26 Nov - 15:47:58 10° SW 15:51:57 18° S 15:55:11 10° SE daylight
26 Nov - 18:09:24 10° SW 18:11:00 12° SSW 18:12:33 10° S visible
27 Nov - 13:48:16 10° SSW 13:53:08 16° S 13:56:52 10° SE daylight
27 Nov - 16:08:41 10° SW 16:12:40 18° S 16:15:55 10° SE daylight
28 Nov - 11:51:13 10° S 11:53:40 11° SSE 11:55:50 10° SE daylight
28 Nov - 14:08:20 10° SW 14:13:58 20° S 14:18:05 10° SE daylight
28 Nov - 16:29:35 10° SW 16:33:21 17° SSW 16:36:29 10° SSE daylight
29 Nov - 12:09:00 10° SSW 12:14:35 15° SSE 12:18:53 10° SE daylight
29 Nov - 14:28:47 10° SW 14:34:46 22° S 14:39:03 10° SE daylight
29 Nov - 16:50:42 10° SW 16:53:59 16° SSW 16:56:49 10° SSE visible
30 Nov - 12:28:19 10° SSW 12:35:30 19° SSE 12:40:36 10° ESE daylight
30 Nov - 14:49:27 10° SW 14:55:32 23° S 14:59:51 10° SE daylight
30 Nov - 17:12:08 10° SW 17:14:35 13° SSW 17:16:46 10° S visible
01 Dec - 10:31:00 10° S 10:35:27 12° SSE 10:39:13 10° SE daylight
01 Dec - 12:48:16 10° SW 12:56:24 23° S 13:01:52 10° ESE daylight
01 Dec - 15:10:19 10° WSW 15:16:16 23° S 15:20:31 10° SE daylight
